Regional Weather Roundup
Issued by NWS

Home | Current Version | Previous Version | Graphics & Text | Print | Product List | Glossary On
Versions: 1 2 3 4 5 6 7 8 9 10 11 12 13 14 15 16 17 18 19 20 21 22 23 24 25 26 27 28 29 30 31 32 33 34 35 36 37 38 39 40 41 42 43 44 45 46 47 48 49 50
000
ASUS45 KCYS 251810
RWRWY

WYOMING REGIONAL WEATHER ROUNDUP
NATIONAL WEATHER SERVICE CHEYENNE WY
1200 PM MDT THU MAY 25 2017

NOTE:  "FAIR" INDICATES FEW OR NO CLOUDS BELOW 12,000 FEET
WITH NO SIGNIFICANT WEATHER AND/OR OBSTRUCTIONS TO VISIBILITY.

WYZ001-251900-
YELLOWSTONE NATIONAL PARK

CITY           SKY/WX    TMP DP  RH WIND       PRES   REMARKS
LK YELLOWSTONE   N/A     35  23  61 CALM      29.83R
6HR MIN TEMP:  26; 6HR MAX TEMP:  40;

W YELLOWSTONE  NOT AVBL

$$
WYZ002>013-054>058-071-098>099-251900-
NORTHERN WYOMING

CITY           SKY/WX    TMP DP  RH WIND       PRES   REMARKS
JACKSON        MOSUNNY   52  12  20 W17G29    29.76R
CODY           CLOUDY    51  24  34 N14       29.72R
GREYBULL       FAIR      58  32  37 NW35G43   29.66R
6HR MIN TEMP:  50; 6HR MAX TEMP:  60;

WORLAND        FAIR      61  29  29 N22G28    29.66R
6HR MIN TEMP:  49; 6HR MAX TEMP:  62;

SHERIDAN       FAIR      56  38  50 NW26G36   29.64R
6HR MIN TEMP:  43; 6HR MAX TEMP:  59;

BUFFALO        FAIR      58  33  39 N23G29    29.64R
6HR MIN TEMP:  47; 6HR MAX TEMP:  58;

GILLETTE       FAIR      59  33  37 W14G21    29.61R
6HR MIN TEMP:  37; 6HR MAX TEMP:  59;

HULETT         FAIR      59  32  36 NW7G18    29.60R
NEWCASTLE      FAIR      55  25  30 W12G17    29.60R

$$
WYZ014>020-022>026-101>103-251900-
CENTRAL WYOMING

CITY           SKY/WX    TMP DP  RH WIND       PRES   REMARKS
BIG PINEY      FAIR     N/A N/A N/A MISG      29.76S
PINEDALE       FAIR      50  19  29 NW7       29.76R
DUBOIS         FAIR      50  12  22 NW17G28   29.71R
LANDER         FAIR      59  23  25 CALM      29.65S
6HR MIN TEMP:  47; 6HR MAX TEMP:  59;

RIVERTON       FAIR      61  17  18 NW17G28   29.66R
6HR MIN TEMP:  48; 6HR MAX TEMP:  61;

CASPER         FAIR      59  37  44 W14G23    29.65R
6HR MIN TEMP:  46; 6HR MAX TEMP:  59; 6HR PCP: TRACE;

DOUGLAS        FAIR      59  44  57 N13       29.63S
6HR MIN TEMP:  46; 6HR MAX TEMP:  60; 6HR PCP:  0.04;


$$
WYZ021-027>030-104>119-251900-
SOUTHERN WYOMING

CITY           SKY/WX    TMP DP  RH WIND       PRES   REMARKS
EVANSTON         N/A     54  32  43 W18       29.77S
6HR MIN TEMP:  40; 6HR MAX TEMP:  54;

ROCK SPRINGS   FAIR      55  31  39 W22G29    29.75S
6HR MIN TEMP:  40; 6HR MAX TEMP:  55; 6HR PCP: TRACE;

DIXON            N/A     52  39  61 E3        29.79S
RAWLINS        FAIR      50  39  66 SW17G26   29.75R
6HR MIN TEMP:  41; 6HR MAX TEMP:  51; 6HR PCP:  0.04;

SARATOGA       CLOUDY    46  36  66 W14       29.78R
LARAMIE        FAIR      60  38  43 W16G25    29.69F
6HR MIN TEMP:  40; 6HR MAX TEMP:  60;

CHEYENNE       FAIR      60  40  47 N10       29.67R
6HR MIN TEMP:  50; 6HR MAX TEMP:  64;

TORRINGTON     FAIR      67  46  47 NW5       29.58R
6HR MIN TEMP:  52; 6HR MAX TEMP:  68;

PINE BLUFFS    FAIR      64  41  42 NW13G20   29.65R

$$



USA.gov is the U.S. government's official web portal to all federal, state and local government web resources and services.